sat.trackr.live / text

‹ back to catalog

STARLINK-34790

NORAD 65690 · 2025-212Q

PAYLOAD ACTIVE UNKNOWN

§ Identity

Operator
Country
US
Launch date
2025-09-21
Launch site
AFETR
Launch vehicle
Mass (kg)
RCS (m²)

Purposes: comms

External: N2YO · Heavens-Above · Gunter

§ Orbital elements

Epoch: 2026-05-24T23:48:59.817600Z

Period
94.10 min
Inclination
53.1598°
Eccentricity
0.0000289
Mean motion
15.30211970 rev/d
Perigee alt
475.0 km
Apogee alt
475.4 km
Semi-major
6,853.3 km
B*
6.9047e-4
RAAN
351.4130°
Arg perigee
92.4291°
Mean anomaly
267.6743°
Rev number
3,887

§ Raw data

STARLINK-347901 65690U 25212Q   26144.99235900  .00020154  00000+0  69047-3 0  99922 65690  53.1598 351.4130 0000289  92.4291 267.6743 15.30211970 38872

JSON: /api/v1/satellites/65690 · /tle

For live sub-satellite position, see the globe view (requires WebGL).

§ Visibility from observer

Set your observer location to see the next 7 days of passes ≥ 10°. The values pass through the URL so the page stays shareable.

No JS? Fill the form by hand. The geolocation button needs JavaScript.